Wind_Speed
16 15 15 13 12 11 10 8 6 5 4 4 3 3 2 2 2 1 1 1 2 2 3 3 4 5 6 6 6 6 7 7 6 6 5 5 5 5 5 6 6 6 7 8
17 16 15 15 14 12 11 10 8 6 6 5 5 4 4 4 5 3 2 1 1 2 1 1 2 3 5 5 5 5 6 6 6 6 5 4 4 5 5 6 6 7 7 8
17 16 17 17 15 14 13 11 10 9 8 8 7 5 5 5 6 6 4 3 3 3 2 1 1 2 4 4 5 5 5 5 5 5 5 5 5 5 6 6 7 7 8 8
18 18 18 17 17 15 14 12 11 11 10 9 9 8 7 7 7 7 6 5 4 4 3 3 2 3 4 5 5 5 4 4 4 4 5 5 6 6 6 7 8 8 9 9
19 19 18 18 18 17 16 15 14 13 12 11 11 10 8 9 8 8 8 7 6 5 4 4 4 4 5 5 6 6 6 5 5 5 6 6 6 6 7 8 8 9 9 9
21 20 20 19 19 18 17 17 16 15 14 13 12 12 9 10 10 9 9 8 7 7 6 5 6 6 7 7 7 7 8 7 6 7 7 7 8 8 9 9 10 10 11 11
22 21 21 20 20 19 18 17 17 17 16 14 13 13 11 10 11 10 9 8 8 8 8 7 8 9 9 8 8 9 8 8 8 8 9 8 9 10 10 11 11 12 12 13
22 22 22 21 20 19 19 19 18 18 17 16 14 14 12 12 12 12 11 10 10 10 9 9 9 9 10 9 9 9 9 9 9 9 10 10 11 10 11 12 13 13 14 15
23 22 22 23 23 22 21 19 19 20 19 18 17 15 13 13 14 13 13 12 12 11 11 11 11 11 10 10 9 9 10 10 11 11 11 11 12 12 12 13 14 14 15 16
24 23 23 24 24 24 23 21 21 21 21 20 18 16 15 15 15 15 14 14 13 13 13 12 12 12 11 11 11 11 11 12 13 13 13 13 14 14 14 15 16 16 16 17
23 24 24 25 25 24 24 22 22 22 22 21 20 17 15 16 16 16 17 16 14 13 14 14 14 14 13 13 13 13 14 14 15 15 14 15 15 16 16 17 17 17 18 18
22 24 25 25 25 26 25 24 23 23 23 23 22 19 17 17 17 18 17 17 16 15 15 16 16 16 15 14 14 15 15 16 17 17 17 17 16 17 18 18 19 19 19 19
22 23 24 25 25 26 26 25 25 25 25 25 24 21 19 18 18 18 18 18 18 17 17 17 17 17 17 16 16 17 18 19 20 20 21 20 20 20 21 20 20 20 20 20
23 23 24 25 25 25 26 26 26 27 27 26 25 23 21 20 20 19 19 19 19 19 18 18 18 19 18 18 18 19 20 21 22 22 22 22 22 23 23 22 21 20 21 21
24 24 24 25 25 25 26 27 27 27 26 27 26 25 23 22 22 22 21 21 21 21 20 19 19 20 20 20 20 21 21 22 23 24 24 24 23 23 23 23 22 22 21 22
27 27 26 26 26 26 26 27 27 28 27 27 27 26 25 24 24 24 23 22 22 23 22 21 20 21 21 22 23 23 23 23 24 24 25 25 25 24 24 24 23 23 23 24
30 29 28 28 27 27 27 26 26 27 27 26 27 26 26 27 26 25 25 25 25 25 25 24 23 24 25 25 26 26 25 25 25 25 25 26 26 26 26 26 25 25 25 25
31 30 29 28 28 29 28 27 27 27 27 27 27 27 27 27 26 26 26 27 27 27 27 27 27 27 27 27 28 28 27 27 26 26 26 26 27 27 27 27 27 27 27 27
31 31 31 30 29 29 28 27 27 27 27 26 26 26 26 26 26 25 26 26 27 28 29 29 29 29 28 28 28 28 29 28 27 27 27 27 28 28 28 28 28 28 28 28
33 33 32 32 31 30 29 28 28 28 28 27 26 25 26 27 27 26 27 28 28 28 29 30 30 29 29 28 29 29 30 30 29 29 29 29 30 30 29 29 29 29 29 28
33 34 33 32 31 31 29 28 29 30 29 27 27 27 28 28 28 28 29 29 28 28 28 29 29 29 30 29 30 30 30 31 31 30 30 30 30 30 31 31 30 30 30 29
33 33 33 32 31 30 28 28 29 29 28 27 26 27 28 29 29 29 30 29 29 29 29 29 29 30 30 30 30 30 31 31 31 31 30 30 30 31 32 31 30 30 30 30
32 32 32 33 32 31 30 29 29 29 29 28 28 27 28 28 29 29 29 30 29 28 28 28 29 29 30 31 30 31 31 31 30 30 30 30 31 31 31 32 31 31 31 31
31 31 32 32 33 32 31 31 31 31 31 30 29 29 29 28 28 28 29 28 27 27 27 27 28 29 31 31 31 32 32 31 31 31 30 30 30 31 33 34 34 33 33 33
30 30 30 31 31 32 31 31 31 31 31 31 30 30 29 29 28 29 29 28 28 28 29 29 30 31 32 33 33 32 31 30 31 31 32 32 32 33 35 35 35 34 33 33
29 29 30 31 32 32 32 31 31 31 32 32 31 30 30 29 29 29 29 29 30 30 30 30 31 32 32 33 33 32 32 32 32 33 34 35 35 35 35 35 35 35 35 34
Wind_Direction
220 220 218 217 219 223 224 226 237 243 249 267 281 281 280 273 271 252 108 73 57 59 51 42 29 27 28 27 26 28 22 17 21 24 31 28 24 17 8 359 356 354 354 355
221 220 221 220 219 221 226 230 236 247 254 265 275 280 276 262 269 266 262 249 281 305 347 25 21 19 15 12 8 8 12 12 16 16 18 16 11 10 7 0 354 351 350 349
223 222 224 223 222 226 231 236 237 240 247 259 269 274 274 260 259 256 247 247 265 266 259 253 282 339 350 357 345 344 351 357 3 4 0 358 355 352 352 349 343 339 337 338
222 223 227 226 222 228 233 235 235 238 244 257 270 274 271 266 260 257 255 259 265 268 261 270 275 297 322 332 328 322 318 326 333 337 341 340 342 342 336 338 338 333 333 332
223 225 227 228 229 232 235 235 239 240 245 254 261 269 270 270 267 268 267 263 271 272 269 278 287 290 301 308 311 307 295 297 303 308 317 318 322 327 328 326 325 324 325 326
225 225 226 228 230 233 236 238 242 244 246 253 261 268 269 272 277 274 271 266 273 277 277 277 279 282 288 295 297 299 293 291 293 295 301 308 313 313 313 312 312 315 320 322
226 227 228 229 231 233 236 242 246 249 250 256 259 265 272 273 276 272 273 270 271 273 277 275 276 284 289 290 289 289 288 289 294 294 295 299 300 302 302 306 306 310 313 314
228 227 229 231 234 236 239 245 250 255 257 258 258 262 268 271 274 272 271 270 268 270 276 275 275 280 285 285 287 284 282 287 292 291 291 292 294 295 298 300 301 306 310 310
229 228 228 230 232 236 240 244 250 253 255 258 259 259 263 268 271 269 270 271 272 274 274 272 274 278 277 282 283 285 288 288 290 290 292 291 293 292 294 296 299 302 304 303
231 230 227 229 231 234 240 245 248 251 254 257 259 260 264 267 268 268 270 272 274 275 275 276 278 281 278 279 281 288 290 292 294 294 293 294 294 295 293 294 299 299 300 302
234 233 228 230 231 234 240 245 249 253 256 260 263 264 266 267 267 267 270 271 274 275 276 278 279 276 275 278 279 285 287 290 292 291 290 291 291 293 294 296 296 296 297 299
236 236 232 231 233 236 241 246 249 253 256 259 263 266 267 269 267 267 269 270 272 273 278 279 277 277 278 277 280 283 284 285 285 288 289 288 288 290 291 293 295 294 294 296
237 239 237 233 234 238 242 247 250 253 255 258 262 265 266 270 269 270 269 271 273 273 274 277 279 279 279 278 280 282 283 284 285 286 289 288 288 290 291 292 294 293 294 296
241 243 243 241 240 242 245 248 251 254 255 258 261 264 266 268 268 269 271 271 272 270 271 275 279 278 277 280 282 282 282 283 286 287 288 289 289 289 293 296 296 296 296 296
244 247 246 245 244 244 246 248 251 253 258 261 262 263 266 270 269 270 268 267 268 268 270 274 279 278 277 279 281 283 283 284 285 287 287 288 290 289 290 293 294 294 294 296
245 248 249 248 247 247 248 249 252 255 257 259 261 263 266 267 267 266 264 265 267 269 270 272 275 278 279 280 282 284 285 284 284 284 285 287 287 288 290 291 292 292 293 295
247 249 250 250 249 251 252 253 255 256 256 257 259 263 266 267 266 266 265 266 269 270 270 271 273 275 278 281 282 283 283 284 283 283 284 285 286 287 288 288 289 290 291 293
246 248 249 250 251 253 255 255 256 257 256 257 259 261 265 268 267 267 270 270 270 271 271 272 272 274 278 280 280 280 280 282 281 282 283 283 283 284 285 286 287 289 290 292
243 246 250 252 254 255 256 258 260 260 258 259 260 262 264 267 267 268 270 271 270 271 271 270 271 273 276 278 280 283 283 281 281 281 282 282 282 284 285 287 288 289 290 292
242 243 247 251 254 256 258 260 260 262 262 260 263 263 264 266 269 273 274 274 271 269 270 270 271 274 277 280 281 283 283 282 280 281 280 280 281 283 285 287 288 289 289 290
243 242 244 249 253 256 259 259 260 261 263 264 266 266 264 267 271 273 275 274 273 270 271 273 274 276 278 279 280 282 283 282 281 280 279 281 283 284 286 287 289 289 289 289
244 243 245 249 253 256 257 259 261 263 265 267 268 266 266 268 272 273 273 273 274 271 272 274 276 277 279 279 279 281 281 281 281 281 280 280 281 283 285 288 289 289 290 291
245 246 247 249 252 255 256 258 260 262 263 264 265 265 266 269 272 272 273 273 275 273 275 276 276 277 279 278 277 278 279 279 281 282 280 279 279 280 282 285 287 288 290 291
246 247 248 250 252 253 256 258 259 261 263 263 263 263 265 268 270 273 274 274 275 276 278 278 279 280 282 280 278 277 278 278 279 282 280 279 280 280 281 283 286 287 288 289
247 248 249 250 250 252 254 257 260 262 263 263 263 263 264 268 271 272 274 275 277 279 280 282 281 281 281 281 281 280 282 281 280 280 280 281 281 281 282 283 284 286 287 288
247 249 250 251 252 254 256 258 260 261 263 264 264 265 265 266 269 271 272 274 276 279 280 282 282 281 281 282 283 282 281 280 282 282 282 283 282 281 282 282 282 284 287 289
Height
5896 5899 5900 5903 5904 5906 5906 5907 5908 5909 5910 5910 5910 5911 5911 5912 5912 5912 5911 5911 5911 5911 5910 5910 5909 5909 5908 5907 5906 5906 5905 5904 5903 5903 5902 5901 5900 5899 5898 5897 5896 5895 5894 5893
5895 5897 5899 5900 5902 5903 5904 5906 5907 5908 5908 5908 5909 5909 5910 5911 5911 5911 5911 5910 5910 5910 5910 5909 5909 5909 5908 5907 5906 5905 5905 5904 5903 5902 5902 5901 5900 5899 5898 5896 5895 5894 5893 5892
5892 5895 5896 5898 5900 5901 5903 5905 5906 5906 5906 5907 5908 5909 5909 5909 5909 5910 5909 5909 5909 5909 5909 5908 5908 5908 5907 5906 5905 5905 5904 5903 5902 5902 5901 5900 5899 5898 5897 5896 5894 5893 5892 5890
5888 5891 5893 5895 5897 5899 5901 5903 5904 5904 5905 5905 5906 5907 5908 5907 5907 5908 5908 5908 5908 5908 5907 5907 5906 5906 5906 5905 5904 5903 5903 5902 5901 5900 5900 5899 5898 5897 5896 5894 5893 5892 5891 5889
5886 5888 5890 5892 5895 5897 5899 5900 5901 5902 5902 5903 5904 5904 5906 5905 5906 5906 5906 5906 5906 5906 5906 5906 5905 5905 5904 5903 5902 5902 5901 5900 5899 5899 5898 5897 5896 5895 5894 5893 5892 5891 5889 5888
5883 5885 5887 5890 5892 5894 5896 5897 5898 5899 5900 5901 5902 5902 5904 5904 5904 5904 5904 5904 5905 5905 5904 5904 5903 5903 5902 5901 5901 5900 5899 5898 5898 5897 5896 5895 5895 5893 5893 5891 5890 5889 5888 5886
5879 5882 5884 5887 5889 5891 5893 5895 5896 5896 5897 5898 5899 5899 5902 5902 5902 5902 5902 5902 5902 5902 5902 5901 5901 5901 5900 5900 5899 5898 5897 5897 5896 5895 5893 5892 5892 5891 5890 5889 5888 5887 5885 5883
5875 5879 5881 5883 5886 5887 5889 5891 5893 5894 5894 5895 5896 5897 5900 5900 5899 5899 5899 5899 5899 5900 5899 5899 5899 5898 5898 5897 5896 5895 5895 5894 5893 5892 5891 5890 5889 5888 5887 5886 5885 5884 5882 5880
5872 5875 5877 5879 5882 5884 5885 5887 5889 5890 5891 5892 5893 5894 5896 5896 5897 5896 5896 5896 5897 5897 5896 5896 5896 5896 5895 5894 5893 5893 5892 5891 5890 5888 5888 5887 5886 5885 5884 5883 5882 5880 5878 5876
5867 5871 5873 5875 5877 5879 5882 5883 5885 5886 5886 5887 5889 5890 5893 5893 5893 5893 5893 5893 5893 5893 5893 5893 5892 5892 5892 5891 5891 5890 5889 5888 5887 5885 5885 5884 5883 5881 5880 5879 5877 5876 5874 5872
5863 5866 5869 5871 5873 5875 5877 5879 5880 5881 5883 5884 5885 5889 5889 5889 5890 5890 5890 5890 5890 5890 5889 5889 5889 5888 5888 5887 5887 5886 5885 5884 5883 5882 5881 5880 5879 5877 5876 5874 5873 5871 5869 5867
5859 5861 5863 5866 5869 5870 5872 5874 5876 5877 5879 5880 5881 5885 5884 5885 5885 5885 5886 5886 5886 5886 5885 5885 5884 5884 5883 5883 5882 5882 5881 5880 5879 5878 5877 5875 5874 5873 5871 5870 5868 5866 5864 5862
5854 5856 5859 5861 5865 5866 5867 5869 5870 5872 5874 5875 5876 5881 5880 5880 5880 5880 5881 5881 5881 5881 5881 5880 5880 5879 5878 5877 5877 5877 5876 5875 5874 5873 5871 5870 5869 5867 5865 5863 5862 5860 5858 5857
5850 5852 5854 5857 5859 5861 5862 5864 5866 5867 5868 5869 5871 5873 5875 5875 5875 5875 5876 5876 5876 5876 5876 5875 5874 5874 5873 5872 5872 5872 5871 5870 5869 5867 5866 5865 5863 5861 5859 5857 5855 5854 5853 5851
5844 5847 5849 5851 5853 5855 5857 5858 5860 5861 5863 5864 5866 5867 5869 5869 5870 5870 5870 5870 5870 5870 5870 5870 5869 5868 5867 5867 5866 5865 5865 5864 5863 5861 5860 5859 5857 5855 5853 5852 5850 5848 5846 5845
5839 5841 5843 5845 5847 5849 5850 5852 5853 5855 5856 5858 5860 5862 5863 5863 5863 5863 5864 5864 5864 5864 5864 5863 5863 5862 5861 5861 5860 5859 5858 5857 5856 5855 5853 5852 5850 5849 5847 5846 5844 5842 5840 5838
5833 5835 5837 5839 5841 5842 5844 5846 5847 5849 5850 5852 5853 5856 5856 5856 5857 5857 5857 5857 5857 5857 5857 5857 5856 5855 5855 5854 5853 5852 5851 5850 5849 5848 5846 5845 5843 5842 5841 5839 5837 5835 5833 5831
5826 5828 5830 5832 5835 5836 5840 5840 5841 5843 5844 5845 5847 5848 5849 5849 5850 5850 5850 5850 5850 5850 5850 5849 5848 5848 5848 5847 5846 5845 5844 5843 5842 5840 5839 5837 5836 5834 5833 5831 5830 5828 5825 5823
5820 5822 5824 5826 5827 5829 5832 5834 5835 5837 5838 5839 5840 5841 5841 5842 5842 5842 5843 5843 5842 5842 5841 5841 5840 5840 5840 5839 5838 5837 5836 5835 5834 5833 5831 5829 5828 5827 5825 5824 5822 5820 5818 5816
5812 5815 5818 5819 5820 5822 5827 5828 5829 5831 5831 5833 5833 5834 5835 5835 5835 5836 5835 5835 5834 5833 5833 5832 5832 5831 5831 5831 5830 5829 5828 5827 5825 5824 5822 5821 5819 5818 5817 5815 5813 5811 5809 5807
5804 5807 5809 5812 5813 5815 5819 5820 5822 5824 5826 5826 5826 5827 5827 5828 5828 5829 5828 5827 5826 5825 5824 5824 5823 5823 5822 5822 5821 5820 5819 5818 5817 5815 5813 5812 5811 5809 5808 5807 5805 5803 5801 5799
5797 5799 5802 5804 5806 5811 5811 5812 5814 5816 5816 5817 5818 5819 5819 5820 5820 5820 5819 5818 5817 5816 5816 5816 5815 5814 5813 5813 5812 5811 5810 5809 5807 5806 5804 5803 5802 5801 5799 5798 5796 5794 5792 5790
5789 5792 5794 5798 5801 5802 5803 5804 5806 5807 5808 5809 5810 5811 5812 5812 5812 5811 5811 5810 5809 5809 5808 5807 5806 5806 5804 5803 5803 5802 5801 5800 5798 5797 5796 5794 5793 5792 5790 5789 5786 5784 5783 5781
5781 5784 5786 5789 5791 5793 5795 5796 5797 5798 5800 5801 5802 5802 5803 5803 5803 5802 5802 5802 5801 5801 5800 5799 5798 5797 5796 5794 5793 5793 5792 5791 5790 5789 5787 5786 5784 5783 5781 5779 5777 5776 5774 5772
5773 5775 5778 5780 5783 5784 5786 5787 5789 5790 5791 5792 5793 5793 5794 5794 5794 5794 5794 5793 5793 5792 5791 5791 5790 5788 5787 5786 5784 5783 5782 5781 5780 5779 5778 5776 5775 5773 5771 5769 5768 5766 5764 5762
5766 5768 5770 5772 5774 5776 5778 5779 5780 5782 5782 5783 5784 5785 5785 5786 5786 5786 5786 5785 5784 5783 5782 5782 5781 5779 5778 5777 5775 5774 5773 5772 5771 5770 5768 5766 5764 5763 5761 5760 5758 5756 5755 5752